Zurück zum Katalog

STARLINK-34304

AktivKommunikationVLEO
NORAD 64224·PAYLOAD·🇺🇸 United States

Gestartet May 31, 2025 von Vandenberg Space Force Base

Loading…

Nächste Überflüge (nächste 24 Stunden)

TLE

AktuellSource: CelesTrak SupGP

Epoche: Sep 14, 2026, 14:38 UTC

1 64224C 25117X   26257.61020833 -.00029234  00000+0 -86402-3 0  2570
2 64224  53.1572 241.0162 0001373  91.7099 329.1222 15.34394518    13

Verfolge STARLINK-34304 in Echtzeit mit AllMySat

Download on the App Store